When you browse on this site, cookies collect data to enhance your experience and personalize the content and advertising you see.
Visit our Privacy Policy to learn more. By continuing to use the site, you agree to this use of cookies and data.
  • In Österreich
  • Länderverzeichnis
  • Für 7 Tage
  • Wassertemperatur
  • Satellitenkarten
  • Wetterkarte
  • News
  • Widgets
  • user-avatar
    Anmelden

    Stündliche Wetter Yuhanovo

    Heute, 20 November, Dienstag

    Zeit Temperatur Niederschläge Wind Luftdruck Luftfeuchtigkeit
    00:00 -2°C° 0 mm 1 m/S 764 mmHg 90%
    01:00 -3°C° 0 mm 1 m/S 764 mmHg 91%
    02:00 -3°C° 0 mm 1 m/S 764 mmHg 94%
    03:00 -4°C° 0 mm 1 m/S 763 mmHg 95%
    04:00 -4°C° 0 mm 1 m/S 763 mmHg 95%
    05:00 -6°C° 0 mm 1 m/S 763 mmHg 96%
    06:00 -6°C° 0 mm 1 m/S 763 mmHg 96%
    07:00 -6°C° 0 mm 1 m/S 763 mmHg 96%
    08:00 -6°C° 0 mm 1 m/S 763 mmHg 95%
    09:00 -4°C° 0 mm 1 m/S 762 mmHg 91%
    10:00 -3°C° 0 mm 1 m/S 762 mmHg 86%
    11:00 -2°C° 0 mm 1 m/S 762 mmHg 82%
    12:00 -2°C° 0 mm 1 m/S 762 mmHg 81%
    13:00 -2°C° 0 mm 1 m/S 761 mmHg 81%
    14:00 -1°C° 0 mm 1 m/S 761 mmHg 80%
    15:00 -2°C° 0 mm 1 m/S 761 mmHg 83%
    16:00 -3°C° 0 mm 1 m/S 761 mmHg 87%
    17:00 -4°C° 0 mm 1 m/S 760 mmHg 90%
    18:00 -4°C° 0 mm 1 m/S 760 mmHg 90%
    19:00 -4°C° 0 mm 1 m/S 760 mmHg 90%
    20:00 -4°C° 0 mm 1 m/S 760 mmHg 89%
    21:00 -4°C° 0 mm 1 m/S 760 mmHg 89%
    22:00 -4°C° 0 mm 1 m/S 760 mmHg 89%
    23:00 -6°C° 0 mm 2 m/S 760 mmHg 89%

    Morgen, 21 November, Mittwoch

    Zeit Temperatur Niederschläge Wind Luftdruck Luftfeuchtigkeit
    00:00 -6°C° 0 mm 2 m/S 760 mmHg 90%
    01:00 -6°C° 0 mm 2 m/S 760 mmHg 90%
    02:00 -6°C° 0 mm 2 m/S 759 mmHg 91%
    03:00 -3°C° 0 mm 1 m/S 759 mmHg 92%
    04:00 -3°C° 0 mm 1 m/S 759 mmHg 93%
    05:00 -2°C° 0 mm 1 m/S 759 mmHg 94%
    06:00 -2°C° 0 mm 1 m/S 759 mmHg 94%
    07:00 -1°C° 0 mm 1 m/S 759 mmHg 93%
    08:00 -1°C° 0 mm 1 m/S 759 mmHg 93%
    09:00 -2°C° 0 mm 2 m/S 760 mmHg 91%
    10:00 -2°C° 0 mm 2 m/S 760 mmHg 89%
    11:00 -1°C° 0 mm 2 m/S 760 mmHg 87%
    12:00 -1°C° 0 mm 2 m/S 760 mmHg 86%
    13:00 -1°C° 0 mm 2 m/S 760 mmHg 85%
    14:00 -1°C° 0 mm 2 m/S 760 mmHg 84%
    15:00 -1°C° 0 mm 2 m/S 760 mmHg 86%
    16:00 -2°C° 0 mm 2 m/S 760 mmHg 88%
    17:00 -2°C° 0 mm 2 m/S 760 mmHg 90%
    18:00 -3°C° 0 mm 2 m/S 760 mmHg 91%
    19:00 -3°C° 0 mm 2 m/S 760 mmHg 92%
    20:00 -3°C° 0 mm 2 m/S 759 mmHg 92%
    21:00 -4°C° 0 mm 2 m/S 759 mmHg 93%
    22:00 -4°C° 0 mm 2 m/S 759 mmHg 94%
    23:00 -4°C° 0 mm 2 m/S 759 mmHg 95%

    übermorgen, 22 November, Donnerstag

    Zeit Temperatur Niederschläge Wind Luftdruck Luftfeuchtigkeit
    00:00 -4°C° 0 mm 2 m/S 759 mmHg 94%
    01:00 -5°C° 0 mm 2 m/S 759 mmHg 94%
    02:00 -5°C° 0 mm 2 m/S 758 mmHg 94%
    03:00 -5°C° 0 mm 2 m/S 758 mmHg 94%
    04:00 -5°C° 0 mm 2 m/S 758 mmHg 94%
    05:00 -5°C° 0 mm 2 m/S 758 mmHg 94%
    06:00 -5°C° 0 mm 2 m/S 757 mmHg 94%
    07:00 -5°C° 0 mm 2 m/S 757 mmHg 95%
    08:00 -5°C° 0 mm 2 m/S 757 mmHg 95%
    09:00 -5°C° 0 mm 3 m/S 756 mmHg 92%
    10:00 -4°C° 0 mm 3 m/S 756 mmHg 88%
    11:00 -3°C° 0 mm 4 m/S 756 mmHg 84%
    12:00 -3°C° 0 mm 4 m/S 755 mmHg 83%
    13:00 -3°C° 0 mm 4 m/S 755 mmHg 82%
    14:00 -3°C° 0 mm 4 m/S 755 mmHg 81%
    15:00 -3°C° 0 mm 4 m/S 755 mmHg 83%
    16:00 -3°C° 0 mm 4 m/S 755 mmHg 85%
    17:00 -3°C° 0 mm 4 m/S 755 mmHg 87%
    18:00 -3°C° 0 mm 4 m/S 755 mmHg 87%
    19:00 -3°C° 0 mm 4 m/S 755 mmHg 87%
    20:00 -2°C° 0 mm 4 m/S 755 mmHg 87%
    21:00 -1°C° 0 mm 3 m/S 755 mmHg 88%
    22:00 -1°C° 0 mm 3 m/S 755 mmHg 89%
    23:00 -1°C° 0 mm 3 m/S 756 mmHg 90%

    23 November, Freitag

    Zeit Temperatur Niederschläge Wind Luftdruck Luftfeuchtigkeit
    00:00 -1°C° 0 mm 3 m/S 756 mmHg 91%
    01:00 -1°C° 0 mm 2 m/S 756 mmHg 92%
    02:00 -2°C° 0 mm 2 m/S 756 mmHg 93%
    03:00 -2°C° 0 mm 2 m/S 757 mmHg 94%
    04:00 -2°C° 0 mm 2 m/S 757 mmHg 94%
    05:00 0°C° 0 mm 1 m/S 757 mmHg 95%
    06:00 0°C° 0 mm 1 m/S 758 mmHg 95%
    07:00 0°C° 0 mm 1 m/S 758 mmHg 95%
    08:00 -1°C° 0 mm 1 m/S 759 mmHg 96%
    09:00 0°C° 0 mm 1 m/S 759 mmHg 94%
    10:00 0°C° 0 mm 1 m/S 759 mmHg 92%
    11:00 +1°C° 0 mm 1 m/S 759 mmHg 90%
    12:00 +1°C° 0 mm 1 m/S 759 mmHg 89%
    13:00 -1°C° 0 mm 2 m/S 759 mmHg 87%
    14:00 -1°C° 0 mm 2 m/S 759 mmHg 86%
    15:00 -1°C° 0 mm 2 m/S 759 mmHg 86%
    16:00 -1°C° 0 mm 2 m/S 759 mmHg 86%
    17:00 -1°C° 0 mm 2 m/S 759 mmHg 86%
    18:00 -1°C° 0 mm 2 m/S 758 mmHg 86%
    19:00 -1°C° 0 mm 2 m/S 758 mmHg 87%
    20:00 -1°C° 0 mm 3 m/S 758 mmHg 87%
    21:00 -1°C° 0 mm 3 m/S 757 mmHg 87%
    22:00 -2°C° 0 mm 3 m/S 757 mmHg 87%
    23:00 -2°C° 0 mm 3 m/S 757 mmHg 87%

    24 November, Samstag

    Zeit Temperatur Niederschläge Wind Luftdruck Luftfeuchtigkeit
    00:00 -2°C° 0 mm 3 m/S 756 mmHg 87%
    01:00 -2°C° 0 mm 3 m/S 756 mmHg 86%
    02:00 -3°C° 0 mm 4 m/S 755 mmHg 86%
    03:00 -3°C° 0 mm 4 m/S 755 mmHg 87%
    04:00 -4°C° 0 mm 3 m/S 754 mmHg 87%
    05:00 -4°C° 0 mm 3 m/S 754 mmHg 88%
    06:00 -5°C° 0 mm 3 m/S 753 mmHg 89%
    07:00 -5°C° 0 mm 3 m/S 753 mmHg 89%
    08:00 -5°C° 0 mm 3 m/S 752 mmHg 90%
    09:00 -5°C° 0 mm 3 m/S 752 mmHg 88%
    10:00 -5°C° 0 mm 3 m/S 752 mmHg 86%
    11:00 -5°C° 0 mm 3 m/S 751 mmHg 84%
    12:00 -4°C° 0 mm 3 m/S 751 mmHg 83%
    13:00 -4°C° 0 mm 3 m/S 751 mmHg 83%
    14:00 -4°C° 0 mm 3 m/S 750 mmHg 82%
    15:00 -4°C° 0 mm 3 m/S 750 mmHg 83%
    16:00 -3°C° 0 mm 2 m/S 750 mmHg 84%
    17:00 -3°C° 0 mm 2 m/S 750 mmHg 85%
    18:00 -3°C° 0 mm 2 m/S 749 mmHg 86%
    19:00 -3°C° 0 mm 2 m/S 749 mmHg 86%
    20:00 -3°C° 0 mm 2 m/S 749 mmHg 87%
    21:00 -3°C° 0 mm 2 m/S 750 mmHg 88%
    22:00 -3°C° 0 mm 2 m/S 750 mmHg 90%
    23:00 -3°C° 0 mm 2 m/S 750 mmHg 92%

    25 November, Sonntag

    Zeit Temperatur Niederschläge Wind Luftdruck Luftfeuchtigkeit
    00:00 -2°C° 0 mm 1 m/S 750 mmHg 92%
    01:00 -2°C° 0 mm 1 m/S 750 mmHg 93%
    02:00 -2°C° 0 mm 1 m/S 750 mmHg 94%
    03:00 -2°C° 0 mm 1 m/S 750 mmHg 95%
    04:00 -2°C° 0 mm 1 m/S 750 mmHg 95%
    05:00 -2°C° 0 mm 1 m/S 750 mmHg 95%
    06:00 -2°C° 0 mm 1 m/S 750 mmHg 95%
    07:00 -2°C° 0 mm 1 m/S 750 mmHg 95%
    08:00 -3°C° 0 mm 0 m/S 750 mmHg 95%
    09:00 -2°C° 0 mm 0 m/S 750 mmHg 92%
    10:00 -1°C° 0 mm 0 m/S 750 mmHg 90%
    11:00 -1°C° 0 mm 0 m/S 750 mmHg 87%
    12:00 -1°C° 0 mm 0 m/S 750 mmHg 87%
    13:00 -1°C° 0 mm 0 m/S 750 mmHg 87%
    14:00 0°C° 0 mm 1 m/S 750 mmHg 87%
    15:00 -1°C° 0 mm 1 m/S 750 mmHg 89%
    16:00 -2°C° 0 mm 1 m/S 750 mmHg 91%
    17:00 -2°C° 0 mm 1 m/S 750 mmHg 93%
    18:00 -3°C° 0 mm 1 m/S 750 mmHg 93%
    19:00 -3°C° 0 mm 1 m/S 750 mmHg 94%
    20:00 -3°C° 0 mm 1 m/S 750 mmHg 94%
    21:00 -3°C° 0 mm 1 m/S 750 mmHg 95%
    22:00 -4°C° 0 mm 1 m/S 749 mmHg 95%
    23:00 -4°C° 0 mm 1 m/S 749 mmHg 95%
    Mehr zeigen